| time (UTC) | temp F | wind direction | speed knots | gust knots | rain 1hr in | rain 24hr in | rain mn in | humidity % | barometer mb |
| 20260504201539 | 71 | 274 | 2.6 | 14.8 | 0.00 | 0.00 | 0.00 | 35 | 1003.9 |
| 20260504200038 | 70 | 281 | 3.5 | 13.0 | 0.00 | 0.00 | 0.00 | 36 | 1004.4 |
| 20260504194542 | 69 | 165 | 3.5 | 13.0 | 0.00 | 0.00 | 0.00 | 37 | 1004.8 |
| 20260504193044 | 70 | 301 | 2.6 | 12.2 | 0.00 | 0.00 | 0.00 | 41 | 1005.0 |
| 20260504191604 | 69 | 175 | 5.2 | 11.3 | 0.00 | 0.00 | 0.00 | 40 | 1005.1 |
| 20260504190040 | 69 | 173 | 3.5 | 10.4 | 0.00 | 0.00 | 0.00 | 39 | 1005.3 |
| 20260504184549 | 68 | 288 | 7.0 | 24.3 | 0.00 | 0.00 | 0.00 | 40 | 1005.4 |
| 20260504183038 | 68 | 250 | 3.5 | 12.2 | 0.00 | 0.00 | 0.00 | 41 | 1005.5 |
| 20260504181538 | 68 | 266 | 3.5 | 12.2 | 0.00 | 0.00 | 0.00 | 42 | 1005.7 |
| 20260504180043 | 68 | 297 | 4.3 | 13.0 | 0.00 | 0.00 | 0.00 | 44 | 1005.8 |
| 20260504174538 | 67 | 282 | 4.3 | 13.0 | 0.00 | 0.00 | 0.00 | 45 | 1005.8 |
| 20260504173038 | 67 | 184 | 3.5 | 13.0 | 0.00 | 0.00 | 0.00 | 46 | 1005.8 |
| 20260504171541 | 66 | 261 | 5.2 | 16.5 | 0.00 | 0.00 | 0.00 | 45 | 1005.8 |
| 20260504081542 | 49 | 191 | 3.5 | 10.4 | 0.00 | 0.00 | 0.00 | 56 | 1008.0 |
| 20260504044537 | 49 | 250 | 4.3 | 9.6 | 0.00 | 0.00 | 0.00 | 57 | 1009.1 |
| 20260504043040 | 49 | 223 | 1.7 | 9.6 | 0.00 | 0.00 | 0.00 | 58 | 1009.2 |
| 20260504041541 | 49 | 207 | 0.9 | 8.7 | 0.00 | 0.00 | 0.00 | 58 | 1009.2 |
| 20260504040041 | 49 | 207 | 1.7 | 7.0 | 0.00 | 0.00 | 0.00 | 59 | 1009.2 |
| 20260504034543 | 50 | 300 | 1.7 | 9.6 | 0.00 | 0.00 | 0.00 | 57 | 1009.2 |
| 20260504033050 | 50 | 243 | 1.7 | 8.7 | 0.00 | 0.00 | 0.00 | 57 | 1009.2 |
| 20260504031538 | 50 | 239 | 0.0 | 5.2 | 0.00 | 0.00 | 0.00 | 56 | 1009.2 |
| 20260504030106 | 51 | 231 | 1.7 | 9.6 | 0.00 | 0.00 | 0.00 | 55 | 1009.2 |
| 20260504024544 | 51 | 226 | 3.5 | 10.4 | 0.00 | 0.00 | 0.00 | 54 | 1009.2 |
| 20260504023038 | 52 | 191 | 1.7 | 7.8 | 0.00 | 0.00 | 0.00 | 53 | 1009.3 |
| 20260504021537 | 52 | 231 | 3.5 | 11.3 | 0.00 | 0.00 | 0.00 | 53 | 1009.5 |
| 20260504020037 | 52 | 194 | 3.5 | 11.3 | 0.00 | 0.00 | 0.00 | 52 | 1009.7 |
| 20260504014539 | 52 | 213 | 4.3 | 13.0 | 0.00 | 0.00 | 0.00 | 52 | 1009.5 |
| 20260504013041 | 52 | 238 | 4.3 | 10.4 | 0.00 | 0.00 | 0.00 | 52 | 1009.7 |
| 20260504011538 | 52 | 239 | 3.5 | 11.3 | 0.00 | 0.00 | 0.00 | 50 | 1009.7 |
| 20260504010040 | 52 | 0 | 2.6 | 14.8 | 0.00 | 0.00 | 0.00 | 49 | 1009.4 |
| 20260504004540 | 52 | 169 | 3.5 | 13.0 | 0.00 | 0.00 | 0.00 | 50 | 1009.5 |
| 20260504003042 | 52 | 215 | 5.2 | 21.7 | 0.00 | 0.00 | 0.00 | 52 | 1009.9 |
| 20260504001537 | 53 | 265 | 4.3 | 14.8 | 0.00 | 0.00 | 0.00 | 48 | 1009.8 |
| 20260504000047 | 53 | 246 | 4.3 | 20.9 | 0.00 | 0.00 | 0.00 | 47 | 1009.8 |
| 20260503234540 | 52 | 217 | 5.2 | 12.2 | 0.00 | 0.00 | 0.00 | 47 | 1009.6 |
| 20260503233040 | 52 | 230 | 6.1 | 16.5 | 0.00 | 0.00 | 0.00 | 47 | 1009.4 |
| 20260503231538 | 52 | 275 | 5.2 | 13.0 | 0.00 | 0.00 | 0.00 | 47 | 1009.5 |
| 20260503230038 | 53 | 316 | 7.0 | 23.5 | 0.00 | 0.00 | 0.00 | 46 | 1009.8 |
| 20260503224537 | 53 | 272 | 4.3 | 13.9 | 0.00 | 0.00 | 0.00 | 46 | 1010.0 |
| 20260503223041 | 53 | 194 | 6.1 | 18.2 | 0.00 | 0.00 | 0.00 | 47 | 1009.5 |
| 20260503221541 | 54 | 252 | 6.1 | 17.4 | 0.00 | 0.00 | 0.00 | 43 | 1009.4 |
| 20260503220038 | 55 | 238 | 6.1 | 14.8 | 0.00 | 0.00 | 0.00 | 42 | 1009.3 |
| 20260503214538 | 55 | 303 | 3.5 | 12.2 | 0.00 | 0.00 | 0.00 | 42 | 1009.3 |
| 20260503213037 | 56 | 306 | 3.5 | 16.5 | 0.00 | 0.00 | 0.00 | 42 | 1009.2 |
| 20260503211537 | 56 | 289 | 5.2 | 16.5 | 0.00 | 0.00 | 0.00 | 41 | 1009.0 |
| 20260503210040 | 56 | 240 | 5.2 | 18.2 | 0.00 | 0.00 | 0.00 | 42 | 1008.9 |
| 20260503204543 | 56 | 207 | 5.2 | 15.6 | 0.00 | 0.00 | 0.00 | 39 | 1009.0 |
| 20260503203043 | 56 | 273 | 3.5 | 12.2 | 0.00 | 0.00 | 0.00 | 42 | 1009.2 |